Weather History for Cincinnati, OH

Change the Weather History Date:

Saturday, January 5, 2013

  Actual Average Record
Temperature  
Mean Temperature 32 °F -  
Max Temperature 42 °F 37 °F 64 °F (2007)
Min Temperature 21 °F 22 °F -2 °F (1959)
Degree Days  
Heating Degree Days 34    
Moisture  
Dew Point 25 °F    
Average Humidity 77    
Maximum Humidity 96    
Minimum Humidity 55    
Precipitation  
Precipitation 0.00 in - - ()
Sea Level Pressure  
Sea Level Pressure 30.33 in    
Wind  
Wind Speed 4 mph (SW)    
Max Wind Speed 12 mph    
Max Gust Speed -    
Visibility 9 miles    
Events      
Averages and records for this station are not official NWS values.
T = Trace of Precipitation, MM = Missing Value Source: NWS Daily Summary

Daily Weather History Graph

Daily Weather History Graph

Search for Another Location

Airport:

Trip Planner

Search our weather history database for the weather conditions in past years. The results will help you decide how hot, cold, wet, or windy it might be!

Date:

Astronomy

Jan. 05, 2013 Rise Set
Actual Time 7:57 AM EST 5:29 PM EST
Civil Twilight 7:27 AM EST 5:59 PM EST
Nautical Twilight 6:54 AM EST 6:32 PM EST
Astronomical Twilight 6:21 AM EST 7:05 PM EST
Moon 1:04 AM EST (1/5) 12:17 PM EST (1/5)
Length of Visible Light 10h 31m
Length of Day
9h 32m
Last Quarter, 44% of the Moon is Illuminated
Jan 5
Last Quarter
Jan 11
New
Jan 18
First Quarter
Jan 26
Full
Feb 3
Last Quarter

Hourly Weather History & Observations

Time (EST) Temp. Windchill Dew Point Humidity Pressure Visibility Wind Dir Wind Speed Gust Speed Precip Events Conditions
12:53 AM 28.0 °F 24.2 °F 21.9 °F 78% 30.39 in 10.0 mi SSW 3.5 mph - N/A   Clear
1:53 AM 26.1 °F - 21.0 °F 81% 30.38 in 10.0 mi Calm Calm - N/A   Clear
2:53 AM 23.0 °F 15.8 °F 21.0 °F 92% 30.41 in 8.0 mi SSW 5.8 mph - N/A   Clear
3:53 AM 21.9 °F 17.2 °F 19.9 °F 92% 30.41 in 7.0 mi SSW 3.5 mph - N/A   Clear
4:53 AM 23.0 °F 18.4 °F 21.0 °F 92% 30.40 in 7.0 mi SW 3.5 mph - N/A   Clear
5:53 AM 21.0 °F 14.6 °F 19.9 °F 96% 30.41 in 7.0 mi SW 4.6 mph - N/A   Clear
6:53 AM 21.0 °F - 19.9 °F 96% 30.42 in 7.0 mi Calm Calm - N/A   Clear
7:53 AM 21.0 °F - 19.9 °F 96% 30.42 in 4.0 mi Calm Calm - N/A   Clear
8:53 AM 23.0 °F 18.4 °F 21.9 °F 96% 30.40 in 8.0 mi WSW 3.5 mph - N/A   Clear
9:53 AM 28.9 °F 23.9 °F 25.0 °F 85% 30.41 in 10.0 mi SSW 4.6 mph - N/A   Clear
10:53 AM 35.1 °F 32.2 °F 27.0 °F 72% 30.39 in 10.0 mi Variable 3.5 mph - N/A   Clear
11:53 AM 39.9 °F 35.1 °F 28.0 °F 63% 30.35 in 10.0 mi SSW 6.9 mph - N/A   Clear
12:53 PM 41.0 °F 35.2 °F 26.1 °F 55% 30.32 in 10.0 mi SSW 9.2 mph - N/A   Overcast
1:53 PM 41.0 °F 34.3 °F 26.1 °F 55% 30.29 in 10.0 mi SSW 11.5 mph - N/A   Overcast
2:53 PM 41.0 °F 36.4 °F 26.1 °F 55% 30.25 in 10.0 mi South 6.9 mph - N/A   Overcast
3:53 PM 42.1 °F 39.2 °F 28.0 °F 58% 30.25 in 10.0 mi SW 4.6 mph - N/A   Overcast
4:53 PM 41.0 °F 37.1 °F 28.0 °F 60% 30.25 in 10.0 mi West 5.8 mph - N/A   Overcast
5:53 PM 39.0 °F 34.8 °F 28.0 °F 65% 30.26 in 10.0 mi SSW 5.8 mph - 0.00 in   Overcast
6:53 PM 39.0 °F 33.4 °F 28.9 °F 67% 30.26 in 10.0 mi SW 8.1 mph - N/A   Overcast
7:53 PM 37.9 °F 32.1 °F 28.0 °F 68% 30.25 in 10.0 mi SW 8.1 mph - N/A   Overcast
8:53 PM 35.1 °F 32.2 °F 27.0 °F 72% 30.25 in 10.0 mi South 3.5 mph - N/A   Mostly Cloudy
9:53 PM 33.1 °F 28.7 °F 27.0 °F 78% 30.23 in 10.0 mi WSW 4.6 mph - N/A   Scattered Clouds
10:53 PM 32.0 °F - 27.0 °F 82% 30.23 in 10.0 mi Calm Calm - N/A   Overcast
11:53 PM 30.0 °F - 26.1 °F 85% 30.21 in 10.0 mi Calm Calm - N/A   Mostly Cloudy